Regional Weather Roundup
Issued by NWS Columbia, SC

Home | Current Version | Previous Version | Text Only | Print | Product List | Glossary On
Versions: 1 2 3 4 5 6 7 8 9 10 11 12 13 14 15 16 17 18 19 20 21 22 23 24 25 26 27 28 29 30 31 32 33 34 35 36 37 38 39 40 41 42 43 44 45 46 47 48 49 50
000
ASUS42 KCAE 241610
RWRCAE
REGIONAL WEATHER ROUNDUP
NATIONAL WEATHER SERVICE COLUMBIA SC
1200 PM EDT SUN MAY 24 2015

NOTE: "FAIR" INDICATES FEW OR NO CLOUDS BELOW 12,000 FEET WITH NO
SIGNIFICANT WEATHER AND/OR OBSTRUCTIONS TO VISIBILITY.

NOT ALL STATIONS ARE QUALITY CONTROLLED BY THE NATIONAL
WEATHER SERVICE. USE DATA WITH CAUTION...ESPECIALLY
DEWPOINT OBSERVATIONS.

SCZ001>056-GAZ040-063>065-077-241700-
...UPSTATE SOUTH CAROLINA...

CITY           SKY/WX    TMP DP  RH WIND       PRES   REMARKS
ANDERSON       MOSUNNY   75  54  47 SE3       30.38F
LIBERTY        MOSUNNY   76  55  47 SE9       30.38F
SPARTANBURG    SUNNY     77  52  41 SE6       30.39F
CLEMSON        SUNNY     75  53  46 CALM      30.39F
GREENVILLE     SUNNY     75  53  46 SE10      30.40F
GREENWOOD      MOSUNNY   77  54  44 SE6       30.39F
GREER          MOSUNNY   74  56  53 E8        30.38F
ROCK HILL      SUNNY     77  55  46 VRB5      30.40F
CHESTER        MOSUNNY   81  46  30 E3G16     30.39F
LAURENS        MOSUNNY   73  63  68 E9        30.39F


...CENTRAL SOUTH CAROLINA...

CITY           SKY/WX    TMP DP  RH WIND       PRES   REMARKS
COLUMBIA APT   PTSUNNY   79  55  43 SE9       30.37F
COLUMBIA OWENS MOSUNNY   79  54  41 S7        30.39F
DARLINGTON     MOSUNNY   79  55  44 S6G16     30.40F
FLORENCE       MOSUNNY   80  57  45 SE9       30.39F
MCENTIRE ANGB  MOSUNNY   78  56  47 E12       30.38F
ORANGEBURG     MOSUNNY   77  55  46 SE8       30.37F
SUMTER SHAW    MOSUNNY   79  57  46 SE9       30.37F
NEWBERRY       MOSUNNY   77  54  44 E5        30.41F
AIKEN          FAIR      75  52  43 E7        30.40F
BARNWELL       FAIR      81  57  44 E12       30.37F
MANNING        FAIR      77  46  33 SE5       30.38F
CAMDEN         FAIR      79  55  44 E8G15     30.39F
LANCASTER      PTSUNNY   77  54  44 E9        30.39F
WINNSBORO      MOSUNNY   77  54  44 SE10      30.38F


...EASTERN AND COASTAL SOUTH CAROLINA...

CITY           SKY/WX    TMP DP  RH WIND       PRES   REMARKS
MYRTLE BEACH   PTSUNNY   79  59  50 E12       30.42S
N MYRTLE BCH   SUNNY     79  58  48 E10       30.40S
CONWAY         CLOUDY    77  59  53 E7G16     30.40S
MARION         FAIR     N/A N/A N/A E3        30.40F
HARTSVILLE     FAIR      79  54  41 E10       30.38F
FLORENCE       MOSUNNY   80  57  45 SE9       30.39F
DARLINGTON     MOSUNNY   79  55  44 S6G16     30.40F
CHARLESTON APT PTSUNNY   78  56  46 E10       30.38R
MOUNT PLEASANT LGT RAIN  79  57  47 E9G24     30.38S
WALTERBORO     MOSUNNY   79  59  50 E15       30.37F
BEAUFORT       PTSUNNY   78  59  51 E12       30.35F


...EASTERN GEORGIA...

CITY           SKY/WX    TMP DP  RH WIND       PRES   REMARKS
AUGUSTA BUSH F MOSUNNY   80  58  46 SE6       30.35F
AUGUSTA DANIEL MOSUNNY   79  56  45 VRB3      30.36F
THOMSON        MOSUNNY   80  64  56 E6        30.40F
WASHINGTON     FAIR      81  64  57 SE6       30.36S
CLAXTON        FAIR      81  63  54 E8        30.33F
SYLVANIA       MOSUNNY   81  63  55 SE9       30.35F
STATESBORO     MOSUNNY   80  64  57 E9        30.34F
SAVANNAH       PTSUNNY   81  58  45 SE10      30.34S


...SOUTHERN NORTH CAROLINA...

CITY           SKY/WX    TMP DP  RH WIND       PRES   REMARKS
CHARLOTTE      PTSUNNY   77  49  37 S7        30.40F
MONROE         MOSUNNY   77  54  44 VRB7      30.39F
WADESBORO      MOSUNNY   79  51  38 SE9       30.39F
ROCKINGHAM     MOSUNNY   77  54  44 SE10      30.40F
RUTHERFORDTON  MOSUNNY   74  54  48 S9        30.41F
ASHEVILLE      MOSUNNY   73  47  39 S10G17    30.42F

$$


USA.gov is the U.S. government's official web portal to all federal, state and local government web resources and services.